TimeCST,TemperatureF,Dew PointF,Humidity,Sea Level PressureIn,VisibilityMPH,Wind Direction,Wind SpeedMPH,Gust SpeedMPH,PrecipitationIn,Events,Conditions,WindDirDegrees,DateUTC
12:58 AM,50.0,48.0,93,30.03,10.0,WNW,2.3,-,N/A,,Clear,300,2013-12-02 06:58:00
1:58 AM,50.5,48.7,94,30.01,10.0,Variable,1.2,-,N/A,,Clear,0,2013-12-02 07:58:00
2:58 AM,50.0,48.0,93,29.99,5.0,SSE,3.5,-,N/A,,Clear,150,2013-12-02 08:58:00
3:58 AM,50.4,48.2,92,29.94,10.0,East,3.5,-,0.00,,Clear,90,2013-12-02 09:58:00
4:33 AM,50.0,48.2,94,29.96,2.5,West,6.9,-,N/A,,Mostly Cloudy,280,2013-12-02 10:33:00
4:43 AM,50.0,46.4,87,29.95,4.0,WNW,2.3,-,N/A,,Mostly Cloudy,300,2013-12-02 10:43:00
4:58 AM,49.5,46.9,91,29.96,10.0,WNW,2.3,-,N/A,,Mostly Cloudy,300,2013-12-02 10:58:00
6:58 AM,47.3,45.3,93,29.97,10.0,ENE,3.5,-,N/A,,Partly Cloudy,60,2013-12-02 12:58:00
7:58 AM,51.3,48.2,89,29.95,10.0,NE,4.6,-,N/A,,Clear,50,2013-12-02 13:58:00
8:58 AM,57.2,48.9,74,29.95,10.0,Variable,1.2,-,N/A,,Clear,0,2013-12-02 14:58:00
9:58 AM,61.7,47.8,60,29.94,10.0,Variable,2.3,-,N/A,,Clear,0,2013-12-02 15:58:00
10:58 AM,64.8,46.9,52,29.92,10.0,Variable,3.5,-,N/A,,Clear,0,2013-12-02 16:58:00
11:58 AM,67.3,46.2,47,29.88,10.0,Variable,3.5,-,N/A,,Clear,0,2013-12-02 17:58:00
12:58 PM,69.4,45.9,43,29.86,10.0,Variable,5.8,-,N/A,,Clear,0,2013-12-02 18:58:00
1:58 PM,69.6,44.8,41,29.84,10.0,WSW,4.6,-,N/A,,Clear,240,2013-12-02 19:58:00
2:58 PM,69.4,45.0,41,29.83,10.0,Variable,4.6,-,N/A,,Clear,0,2013-12-02 20:58:00
3:58 PM,68.2,46.9,47,29.83,9.0,SW,8.1,-,N/A,,Clear,220,2013-12-02 21:58:00
4:43 PM,64.4,46.4,52,29.82,1.8,SSW,3.5,-,N/A,,Haze,210,2013-12-02 22:43:00
4:58 PM,61.0,46.6,59,29.83,10.0,SW,4.6,-,N/A,,Clear,220,2013-12-02 22:58:00
5:58 PM,58.3,47.1,66,29.83,10.0,Calm,Calm,-,N/A,,Clear,0,2013-12-02 23:58:00
6:58 PM,57.7,48.9,72,29.86,10.0,South,5.8,-,N/A,,Clear,190,2013-12-03 00:58:00
7:58 PM,57.6,50.4,77,29.87,9.0,SSW,4.6,-,N/A,,Overcast,200,2013-12-03 01:58:00
8:58 PM,56.5,51.4,83,29.87,10.0,SSW,4.6,-,N/A,,Mostly Cloudy,200,2013-12-03 02:58:00
9:58 PM,56.5,52.3,86,29.87,10.0,South,5.8,-,N/A,,Mostly Cloudy,170,2013-12-03 03:58:00
10:58 PM,56.3,52.5,87,29.88,10.0,South,4.6,-,N/A,,Overcast,170,2013-12-03 04:58:00
11:58 PM,55.8,52.0,87,29.87,10.0,SSE,6.9,-,N/A,,Mostly Cloudy,160,2013-12-03 05:58:00